Dewar Lakes, Nunavut

12:22 AM EDT on April 26, 2018 (GMT -0400)
Dewar Lakes

Weather History for CWUW - May, 2013

Change the Weather History Date:

Friday, May 10, 2013

  Actual Average Record
Temperature  
Mean Temperature -1 °F -  
Max Temperature 3 °F 25 °F 35 °F (2004)
Min Temperature -5 °F 15 °F -7 °F (2001)
Degree Days  
Heating Degree Days 66    
Moisture  
Dew Point -    
Average Humidity    
Maximum Humidity    
Minimum Humidity    
Precipitation  
Precipitation 0.00 in 0.03 in - ()
Sea Level Pressure  
Sea Level Pressure 29.77 in    
Wind  
Wind Speed 8 mph ()    
Max Wind Speed 18 mph    
Max Gust Speed -    
Visibility 1.8 miles    
Events      
Averages and records for this station are not official NWS values.
T = Trace of Precipitation, MM = Missing Value Source: Averaged Metar Reports

Daily Weather History Graph

Daily Weather History Graph

Search for Another Location

Airport or City:

Astronomy

May. 10, 2013 Rise Set
Actual Time 2:44 AM EDT 10:41 PM EDT
Civil Twilight Sun does not set Sun does not set
Nautical Twilight Sun does not set Sun does not set
Astronomical Twilight Sun does not set Sun does not set
Moon 3:12 AM EDT (5/10) 11:46 PM EDT (5/10)
Length of Visible Light 24h 00m
Length of Day
19h 57m
New Moon, 0% of the Moon is Illuminated
May 10
New Moon
May 18
First Quarter
May 25
Full
May 31
Last Quarter
Jun 8
New

Hourly Weather History & Observations

Time (EDT) Temp. Windchill Dew Point Humidity Pressure Visibility Wind Dir Wind Speed Gust Speed Precip Events Conditions
12:00 AM 3.2 °F -7.8 °F - N/A% 29.79 in 1.2 mi SSW 5.8 mph - N/A   Clear
12:10 AM 3.2 °F -7.8 °F - N/A% 29.61 in 1.0 mi SSW 5.8 mph - N/A   Clear
12:28 AM 3.2 °F -7.8 °F - N/A% 29.61 in 1.5 mi SSW 5.8 mph - N/A   Overcast
12:30 AM 3.2 °F -7.8 °F - N/A% 29.61 in 1.6 mi SSW 5.8 mph - N/A   Overcast
12:36 AM 3.2 °F -7.8 °F - N/A% 29.61 in 1.8 mi SSW 5.8 mph - N/A   Overcast
12:37 AM 3.2 °F -7.8 °F - N/A% 29.61 in 1.8 mi SSW 5.8 mph - N/A   Overcast
12:38 AM 3.2 °F -7.8 °F - N/A% 29.61 in 1.8 mi SSW 5.8 mph - N/A   Clear
12:57 AM 3.2 °F -9.1 °F - N/A% 29.62 in 1.8 mi SSW 6.9 mph - N/A   Overcast
12:58 AM 3.2 °F -7.8 °F - N/A% 29.62 in 1.8 mi SSW 5.8 mph - N/A   Overcast
1:00 AM 3.2 °F -7.8 °F - N/A% 29.80 in 1.8 mi SSW 5.8 mph - N/A   Overcast
1:15 AM 3.2 °F -9.1 °F - N/A% 29.62 in 2.0 mi SSW 6.9 mph - N/A   Overcast
1:20 AM 3.2 °F -9.1 °F - N/A% 29.62 in 1.8 mi SSW 6.9 mph - N/A   Overcast
1:40 AM 3.2 °F -9.1 °F - N/A% 29.62 in 2.4 mi SSW 6.9 mph - N/A   Partly Cloudy
1:45 AM 3.2 °F -9.1 °F - N/A% 29.62 in 2.1 mi SSW 6.9 mph - N/A   Mostly Cloudy
1:56 AM 3.2 °F -9.1 °F - N/A% 29.63 in 2.2 mi SSW 6.9 mph - N/A   Overcast
1:57 AM 1.4 °F -11.3 °F - N/A% 29.63 in 2.2 mi SSW 6.9 mph - N/A   Overcast
2:00 AM 2 °F - - % 29.81 in 2 mi SSW 6.9 mph - -   Overcast
2:00 AM 3.2 °F -9.1 °F - N/A% 29.81 in 2.2 mi SSW 6.9 mph - N/A   Overcast
2:01 AM 3.2 °F -9.1 °F - N/A% 29.63 in 2.2 mi SSW 6.9 mph - N/A   Overcast
2:11 AM 3.2 °F -9.1 °F - N/A% 29.63 in 2.4 mi SSW 6.9 mph - N/A   Overcast
2:18 AM 3.2 °F -9.1 °F - N/A% 29.63 in 3.0 mi SSW 6.9 mph - N/A   Overcast
2:20 AM 3.2 °F -9.1 °F - N/A% 29.63 in 3.0 mi SSW 6.9 mph - N/A   Overcast
2:25 AM 3.2 °F -9.1 °F - N/A% 29.63 in 3.0 mi SSW 6.9 mph - N/A   Overcast
2:26 AM 3.2 °F -9.1 °F - N/A% 29.63 in 3.0 mi SSW 6.9 mph - N/A   Overcast
2:33 AM 3.2 °F -9.1 °F - N/A% 29.63 in 2.6 mi SSW 6.9 mph - N/A   Overcast
2:44 AM 3.2 °F -9.1 °F - N/A% 29.63 in 3.0 mi SSW 6.9 mph - N/A   Overcast
2:51 AM 3.2 °F -9.1 °F - N/A% 29.64 in 3.5 mi SSW 6.9 mph - N/A   Overcast
3:00 AM 3.2 °F -9.1 °F - N/A% 29.82 in 3.0 mi South 6.9 mph - N/A   Overcast
3:13 AM 1.4 °F -11.3 °F - N/A% 29.64 in 3.5 mi South 6.9 mph - N/A   Overcast
3:17 AM 1.4 °F -11.3 °F - N/A% 29.64 in 4.0 mi South 6.9 mph - N/A   Overcast
3:30 AM 1.4 °F -11.3 °F - N/A% 29.65 in 4.0 mi South 6.9 mph - N/A   Overcast
3:44 AM 1.4 °F -12.5 °F - N/A% 29.65 in 3.0 mi South 8.1 mph - N/A   Overcast
4:00 AM 1.4 °F -11.3 °F - N/A% 29.83 in 3.0 mi South 6.9 mph - N/A   Overcast
4:13 AM 1.4 °F -11.3 °F - N/A% 29.65 in 3.0 mi South 6.9 mph - N/A   Overcast
4:14 AM 1.4 °F -11.3 °F - N/A% 29.65 in 3.0 mi South 6.9 mph - N/A   Overcast
4:24 AM 1.4 °F -11.3 °F - N/A% 29.65 in 3.5 mi South 6.9 mph - N/A   Overcast
4:37 AM 1.4 °F -9.9 °F - N/A% 29.66 in 4.0 mi South 5.8 mph - N/A   Overcast
4:59 AM 1.4 °F -11.3 °F - N/A% 29.66 in 4.0 mi South 6.9 mph - N/A   Overcast
5:00 AM 1 °F - - % 29.85 in 4 mi South 5.8 mph - -   Overcast
5:00 AM 1.4 °F -11.3 °F - N/A% 29.85 in 4.0 mi South 6.9 mph - N/A   Overcast
5:05 AM 1.4 °F -11.3 °F - N/A% 29.66 in 4.0 mi South 6.9 mph - N/A   Overcast
5:32 AM 1.4 °F -12.5 °F - N/A% 29.67 in 4.0 mi South 8.1 mph - N/A   Overcast
5:39 AM 1.4 °F -11.3 °F - N/A% 29.67 in 3.0 mi South 6.9 mph - N/A   Clear
5:57 AM 1.4 °F -11.3 °F - N/A% 29.67 in 1.0 mi South 6.9 mph - N/A   Clear
5:58 AM 1.4 °F -11.3 °F - N/A% 29.68 in 0.6 mi South 6.9 mph - N/A   Clear
6:00 AM 1.4 °F -11.3 °F - N/A% 29.86 in 0.4 mi South 6.9 mph - N/A   Clear
6:04 AM 1.4 °F -11.3 °F - N/A% 29.68 in 0.1 mi South 6.9 mph - N/A   Clear
7:00 AM -0.4 °F -13.4 °F - N/A% 29.88 in 0.1 mi South 6.9 mph - N/A   Clear
7:35 AM -0.4 °F -13.4 °F - N/A% 29.70 in 0.1 mi South 6.9 mph - N/A   Clear
7:39 AM -0.4 °F -13.4 °F - N/A% 29.70 in 0.1 mi South 6.9 mph - N/A   Clear
8:00 AM -1 °F - - % 29.89 in 0 mi SSE 5.8 mph - -  
8:00 AM -0.4 °F -12.0 °F - N/A% 29.89 in 0.1 mi South 5.8 mph - N/A   Clear
9:00 AM -2.2 °F -15.6 °F - N/A% 29.91 in 0.1 mi SSW 6.9 mph - N/A   Overcast
9:08 AM -2.2 °F -14.2 °F - N/A% 29.71 in 0.1 mi SW 5.8 mph - N/A   Clear
9:18 AM -2.2 °F -12.5 °F - N/A% 29.71 in 0.1 mi SW 4.6 mph - N/A   Mostly Cloudy
9:20 AM -2.2 °F -14.2 °F - N/A% 29.71 in 0.1 mi SW 5.8 mph - N/A   Overcast
9:23 AM -2.2 °F -12.5 °F - N/A% 29.71 in 0.5 mi SW 4.6 mph - N/A   Overcast
9:30 AM -2.2 °F -12.5 °F - N/A% 29.71 in 0.6 mi SW 4.6 mph - N/A   Overcast
9:32 AM -2.2 °F -12.5 °F - N/A% 29.71 in 1.1 mi SW 4.6 mph - N/A   Overcast
9:34 AM -0.4 °F -8.3 °F - N/A% 29.71 in 1.1 mi SW 3.5 mph - N/A   Overcast
9:38 AM -0.4 °F -10.4 °F - N/A% 29.71 in 1.0 mi SW 4.6 mph - N/A   Overcast
9:40 AM -0.4 °F -8.3 °F - N/A% 29.71 in 0.6 mi SW 3.5 mph - N/A   Overcast
9:51 AM -2.2 °F -14.2 °F - N/A% 29.72 in 0.4 mi SW 5.8 mph - N/A   Clear
10:00 AM -2.2 °F -15.6 °F - N/A% 29.91 in 0.4 mi SW 6.9 mph - N/A   Clear
10:12 AM -2.2 °F -15.6 °F - N/A% 29.72 in 0.8 mi SW 6.9 mph - N/A   Clear
10:18 AM -2.2 °F -15.6 °F - N/A% 29.72 in 0.6 mi SSW 6.9 mph - N/A   Clear
10:27 AM -2.2 °F -16.8 °F - N/A% 29.72 in 0.4 mi SW 8.1 mph - N/A   Clear
10:31 AM -2.2 °F -16.8 °F - N/A% 29.72 in 0.1 mi SW 8.1 mph - N/A   Clear
10:55 AM -2.2 °F -18.0 °F - N/A% 29.72 in 0.4 mi SW 9.2 mph - N/A   Clear
10:59 AM -2.2 °F -16.8 °F - N/A% 29.72 in 0.6 mi SW 8.1 mph - N/A   Clear
11:00 AM -2 °F - - % 29.92 in 1 mi SW 9.2 mph - -  
11:00 AM -2.2 °F -16.8 °F - N/A% 29.92 in 0.6 mi SW 8.1 mph - N/A   Clear
11:09 AM -2.2 °F -18.0 °F - N/A% 29.73 in 0.4 mi SSW 9.2 mph - N/A   Clear
11:51 AM -2.2 °F -19.9 °F - N/A% 29.73 in 1.1 mi SW 11.5 mph - N/A   Clear
11:54 AM -2.2 °F -19.9 °F - N/A% 29.73 in 3.0 mi SW 11.5 mph - N/A   Clear
12:00 PM -2.2 °F -19.9 °F - N/A% 29.93 in 3.5 mi SW 11.5 mph - N/A   Clear
12:15 PM -2.2 °F -19.9 °F - N/A% 29.74 in 2.8 mi SW 11.5 mph - N/A   Clear
12:25 PM -2.2 °F -19.9 °F - N/A% 29.74 in 3.0 mi SW 11.5 mph - N/A   Overcast
12:28 PM -2.2 °F -18.9 °F - N/A% 29.74 in 4.0 mi SW 10.4 mph - N/A   Overcast
12:30 PM -2.2 °F -18.9 °F - N/A% 29.74 in 4.0 mi SW 10.4 mph - N/A   Overcast
12:41 PM -2.2 °F -19.9 °F - N/A% 29.75 in 3.0 mi SW 11.5 mph - N/A   Overcast
12:53 PM -2.2 °F -18.9 °F - N/A% 29.75 in 2.5 mi SW 10.4 mph - N/A   Mostly Cloudy
12:54 PM -2.2 °F -18.9 °F - N/A% 29.75 in 2.5 mi SW 10.4 mph - N/A   Overcast
1:00 PM -2.2 °F -19.9 °F - N/A% 29.95 in 2.5 mi SW 11.5 mph - N/A   Overcast
1:10 PM -2.2 °F -19.9 °F - N/A% 29.75 in 2.0 mi SW 11.5 mph - N/A   Overcast
1:14 PM -2.2 °F -18.9 °F - N/A% 29.75 in 1.4 mi SW 10.4 mph - N/A   Overcast
1:17 PM -2.2 °F -19.9 °F - N/A% 29.75 in 1.2 mi SW 11.5 mph - N/A   Overcast
1:21 PM -0.4 °F -16.7 °F - N/A% 29.76 in 1.2 mi SSW 10.4 mph - N/A   Overcast
1:24 PM -0.4 °F -16.7 °F - N/A% 29.76 in 1.4 mi SW 10.4 mph - N/A   Overcast
1:32 PM -0.4 °F -19.2 °F - N/A% 29.76 in 1.6 mi SW 13.8 mph - N/A   Overcast
1:34 PM -0.4 °F -18.4 °F - N/A% 29.76 in 1.6 mi SW 12.7 mph - N/A   Overcast
1:35 PM -0.4 °F -17.6 °F - N/A% 29.76 in 1.6 mi SW 11.5 mph - N/A   Overcast
1:51 PM -0.4 °F -18.4 °F - N/A% 29.76 in 1.4 mi SSW 12.7 mph - N/A   Overcast
2:00 PM -1 °F - - % 29.96 in 1 mi SSW 11.5 mph - -   Overcast
2:00 PM -0.4 °F -17.6 °F - N/A% 29.96 in 1.1 mi SSW 11.5 mph - N/A   Overcast
2:05 PM -0.4 °F -18.4 °F - N/A% 29.76 in 1.0 mi SW 12.7 mph - N/A   Overcast
2:44 PM -2.2 °F -21.5 °F - N/A% 29.78 in 1.1 mi SW 13.8 mph - N/A   Overcast
3:00 PM -2.2 °F -21.5 °F - N/A% 29.97 in 1.0 mi SW 13.8 mph - N/A   Overcast
3:04 PM -2.2 °F -20.7 °F - N/A% 29.78 in 1.0 mi SW 12.7 mph - N/A   Clear
3:10 PM -2.2 °F -22.2 °F - N/A% 29.78 in 0.6 mi SW 15.0 mph - N/A   Clear
3:25 PM -2.2 °F -21.5 °F - N/A% 29.78 in 0.4 mi SW 13.8 mph - N/A   Overcast
4:00 PM -2.2 °F -21.5 °F - N/A% 29.99 in 0.4 mi SW 13.8 mph - N/A   Clear
4:24 PM -2.2 °F -23.5 °F - N/A% 29.79 in 0.6 mi SW 17.3 mph - N/A   Overcast
4:54 PM -2.2 °F -20.7 °F - N/A% 29.80 in 0.6 mi SW 12.7 mph - N/A   Overcast
4:55 PM -2.2 °F -20.7 °F - N/A% 29.80 in 0.6 mi SW 12.7 mph - N/A   Overcast
4:57 PM -2.2 °F -21.5 °F - N/A% 29.80 in 0.6 mi SW 13.8 mph - N/A   Overcast
4:59 PM -2.2 °F -22.2 °F - N/A% 29.80 in 0.6 mi WSW 15.0 mph - N/A   Overcast
5:00 PM -3 °F - - % 30.01 in 1 mi WSW 13.8 mph - -   Overcast
5:00 PM -2.2 °F -21.5 °F - N/A% 30.01 in 0.6 mi WSW 13.8 mph - N/A   Overcast
5:13 PM -4.0 °F -24.5 °F - N/A% 29.81 in 0.4 mi WSW 15.0 mph - N/A   Overcast
5:36 PM -4.0 °F -22.1 °F - N/A% 29.82 in 0.8 mi WSW 11.5 mph - N/A   Overcast
5:53 PM -4.0 °F -22.1 °F - N/A% 29.82 in 0.6 mi WSW 11.5 mph - N/A   Overcast
6:00 PM -2.2 °F -20.7 °F - N/A% 30.02 in 0.6 mi WSW 12.7 mph - N/A   Overcast
6:14 PM -2.2 °F -19.9 °F - N/A% 29.82 in 0.4 mi WSW 11.5 mph - N/A   Overcast
7:00 PM -4.0 °F -25.2 °F - N/A% 30.02 in 0.4 mi West 16.1 mph - N/A   Clear
7:10 PM -4.0 °F -26.4 °F - N/A% 29.82 in 0.5 mi West 18.4 mph - N/A   Clear
7:27 PM -4.0 °F -26.4 °F - N/A% 29.81 in 0.6 mi West 18.4 mph - N/A   Clear
7:38 PM -4.0 °F -25.8 °F - N/A% 29.82 in 1.0 mi West 17.3 mph - N/A   Clear
7:41 PM -4.0 °F -25.8 °F - N/A% 29.82 in 1.0 mi West 17.3 mph - N/A   Clear
7:51 PM -4.0 °F -25.2 °F - N/A% 29.82 in 1.5 mi West 16.1 mph - N/A   Mostly Cloudy
7:52 PM -4.0 °F -25.2 °F - N/A% 29.82 in 1.5 mi West 16.1 mph - N/A   Scattered Clouds
8:00 PM -5 °F - - % 30.04 in 3 mi West 15.0 mph - -  
8:00 PM -4.0 °F -24.5 °F - N/A% 30.04 in 2.5 mi West 15.0 mph - N/A   Scattered Clouds
8:02 PM -4.0 °F - - N/A% 29.83 in 3.0 mi North - - N/A   Mostly Cloudy
8:11 PM -4.0 °F -25.2 °F - N/A% 29.83 in 2.8 mi West 16.1 mph - N/A   Overcast
8:29 PM -4.0 °F -23.7 °F - N/A% 29.83 in 3.0 mi West 13.8 mph - N/A   Overcast
8:35 PM -4.0 °F -24.5 °F - N/A% 29.83 in 4.0 mi West 15.0 mph - N/A   Overcast
8:41 PM -4.0 °F -23.7 °F - N/A% 29.83 in 4.0 mi West 13.8 mph - N/A   Overcast
8:55 PM -4.0 °F -23.0 °F - N/A% 29.83 in 3.5 mi West 12.7 mph - N/A   Overcast
9:00 PM -4.0 °F -23.7 °F - N/A% 30.04 in 3.5 mi West 13.8 mph - N/A   Overcast
9:09 PM -4.0 °F -23.7 °F - N/A% 29.83 in 3.0 mi West 13.8 mph - N/A   Overcast
9:26 PM -4.0 °F -23.7 °F - N/A% 29.84 in 2.5 mi West 13.8 mph - N/A   Overcast
9:48 PM -4.0 °F -22.1 °F - N/A% 29.84 in 2.1 mi West 11.5 mph - N/A   Overcast
9:59 PM -4.0 °F -22.1 °F - N/A% 29.84 in 4.0 mi West 11.5 mph - N/A   Overcast
10:00 PM -4.0 °F -22.1 °F - N/A% 30.05 in 4.0 mi West 11.5 mph - N/A   Overcast
10:14 PM -4.0 °F -21.2 °F - N/A% 29.84 in 4.0 mi West 10.4 mph - N/A   Overcast
10:19 PM -2.2 °F -19.9 °F - N/A% 29.84 in 3.5 mi West 11.5 mph - N/A   Overcast
10:38 PM -2.2 °F -19.9 °F - N/A% 29.84 in 3.0 mi West 11.5 mph - N/A   Overcast
10:53 PM -2.2 °F -19.9 °F - N/A% 29.84 in 3.0 mi WSW 11.5 mph - N/A   Overcast
10:56 PM -2.2 °F -18.9 °F - N/A% 29.84 in 3.0 mi WSW 10.4 mph - N/A   Overcast
11:00 PM -3 °F - - % 30.05 in 3 mi WSW 11.5 mph - -   Overcast
11:00 PM -2.2 °F -19.9 °F - N/A% 30.05 in 3.0 mi WSW 11.5 mph - N/A   Overcast
11:04 PM -2.2 °F -18.9 °F - N/A% 29.84 in 3.0 mi WSW 10.4 mph - N/A   Overcast
11:37 PM -2.2 °F -19.9 °F - N/A% 29.83 in 2.0 mi WSW 11.5 mph - N/A   Overcast
11:43 PM -2.2 °F -18.0 °F - N/A% 29.83 in 1.6 mi SW 9.2 mph - N/A   Overcast
11:44 PM -2.2 °F -18.0 °F - N/A% 29.83 in 1.6 mi SW 9.2 mph - N/A   Overcast
11:50 PM -2.2 °F -19.9 °F - N/A% 29.83 in 1.2 mi SW 11.5 mph - N/A   Overcast
11:52 PM -2.2 °F -20.7 °F - N/A% 29.83 in 1.1 mi SW 12.7 mph - N/A   Overcast
11:58 PM -2.2 °F -21.5 °F - N/A% 29.83 in 1.0 mi SW 13.8 mph - N/A   Clear